Overview Statistics Trail Chart Weather Telemetry Raw packets
 

This is the latest recevied weather packets stored in our database for station/object WX5RP. If no packets are shown the sender has not sent any weather packets the latest 10 day(s).

<< 14 15 16 17 18 19 20 >>
Time Temp. Humidity Pressure Rain* Wind** Luminosity Snow
1777769117 18.33° C 42% 1014.2 hPa 0 mm - 187 W/m² -
1777768517 18.33° C 43% 1014.6 hPa 0 mm - 163 W/m² -
1777767917 18.89° C 44% 1014.2 hPa 0 mm - 176 W/m² -
1777767317 19.44° C 37% 1014.4 hPa 0 mm - 152 W/m² -
1777766717 19.44° C 36% 1013.6 hPa 0 mm - 218 W/m² -
1777766117 20° C 37% 1013.7 hPa 0 mm - 487 W/m² -
1777765517 20° C 40% 1013.8 hPa 0 mm - 387 W/m² -
1777764917 20.56° C 35% 1013.9 hPa 0 mm - 565 W/m² -
1777764316 20.56° C 35% 1014.1 hPa 0 mm - 591 W/m² -
1777763717 19.44° C 34% 1014.1 hPa 0 mm - 506 W/m² -
1777763117 19.44° C 35% 1014.5 hPa 0 mm - 544 W/m² -
1777762516 18.89° C 41% 1014.9 hPa 0 mm - 545 W/m² -
1777761917 18.33° C 42% 1014.3 hPa 0 mm - 503 W/m² -
1777761316 18.33° C 39% 1014.6 hPa 0 mm - 352 W/m² -
1777760717 17.78° C 42% 1015.3 hPa 0 mm - 384 W/m² -
1777760116 16.67° C 43% 1014.9 hPa 0 mm - 401 W/m² -
1777759517 16.67° C 43% 1015.2 hPa 0 mm - 194 W/m² -
1777758917 17.22° C 42% 1015.9 hPa 0 mm - 65 W/m² -
1777758316 17.78° C 37% 1016.2 hPa 0 mm - 33 W/m² -
1777757716 17.78° C 41% 1015.5 hPa 0 mm - 54 W/m² -
1777757116 17.78° C 34% 1014.9 hPa 0 mm - 127 W/m² -
1777756516 18.33° C 38% 1015.3 hPa 0 mm - 102 W/m² -
1777755918 19.44° C 35% 1014.7 hPa 0 mm - 60 W/m² -
1777755316 20.56° C 35% 1014.6 hPa 0 mm - 141 W/m² -
1777754716 20.56° C 26% 1014.4 hPa 0 mm - 240 W/m² -

* Rain latest hour (hover to see other rain measurements)
** Current wind speed in m/s (hover to see current wind gust speed)